sat.trackr.live / text

‹ back to catalog

STARLINK-4023

NORAD 53135 · 2022-083D

PAYLOAD ACTIVE UNKNOWN

§ Identity

Operator
Country
US
Launch date
2022-07-17
Launch site
AFETR
Launch vehicle
Mass (kg)
RCS (m²)

Purposes: comms

External: N2YO · Heavens-Above · Gunter

§ Orbital elements

Epoch: 2026-05-24T20:35:40.588224Z

Period
95.44 min
Inclination
53.2143°
Eccentricity
0.0001111
Mean motion
15.08837416 rev/d
Perigee alt
539.0 km
Apogee alt
540.5 km
Semi-major
6,917.9 km
B*
4.7255e-6
RAAN
192.1876°
Arg perigee
86.2711°
Mean anomaly
273.8408°
Rev number
21,370

§ Raw data

STARLINK-40231 53135U 22083D   26144.85810866 -.00000213  00000+0  47255-5 0  99952 53135  53.2143 192.1876 0001111  86.2711 273.8408 15.08837416213708

JSON: /api/v1/satellites/53135 · /tle

For live sub-satellite position, see the globe view (requires WebGL).

§ Visibility from observer

Set your observer location to see the next 7 days of passes ≥ 10°. The values pass through the URL so the page stays shareable.

No JS? Fill the form by hand. The geolocation button needs JavaScript.